When you browse on this site, cookies collect data to enhance your experience and personalize the content and advertising you see.
Visit our Privacy Policy to learn more. By continuing to use the site, you agree to this use of cookies and data.
  • In Slovakia
  • List of Countries
  • For 7 days
  • Water Temperature
  • Satellite Maps
  • Weather Map
  • Weather Widgets
  • user-avatar
    Login

    Hourly Weather San Luis

    Today, 24 July, Wednesday

    Time Temperature Precipitation Wind Pressure Humidity
    00:00 +4°C° 0 mm 3 mps 706 mmHg 68%
    01:00 +5°C° 0 mm 2 mps 706 mmHg 69%
    02:00 +4°C° 0 mm 2 mps 706 mmHg 70%
    03:00 +4°C° 0 mm 2 mps 707 mmHg 72%
    04:00 +4°C° 0 mm 2 mps 707 mmHg 74%
    05:00 +3°C° 0 mm 2 mps 707 mmHg 75%
    06:00 +4°C° 0 mm 2 mps 707 mmHg 73%
    07:00 +4°C° 0 mm 2 mps 707 mmHg 70%
    08:00 +4°C° 0 mm 2 mps 707 mmHg 67%
    09:00 +5°C° 0 mm 3 mps 707 mmHg 59%
    10:00 +8°C° 0 mm 3 mps 708 mmHg 50%
    11:00 +10°C° 0 mm 3 mps 708 mmHg 42%
    12:00 +11°C° 0 mm 3 mps 707 mmHg 40%
    13:00 +12°C° 0 mm 3 mps 707 mmHg 37%
    14:00 +14°C° 0 mm 2 mps 706 mmHg 34%
    15:00 +14°C° 0 mm 2 mps 706 mmHg 35%
    16:00 +13°C° 0 mm 1 mps 706 mmHg 36%
    17:00 +13°C° 0 mm 1 mps 705 mmHg 37%
    18:00 +12°C° 0 mm 1 mps 705 mmHg 41%
    19:00 +9°C° 0 mm 2 mps 705 mmHg 46%
    20:00 +8°C° 0 mm 2 mps 705 mmHg 50%
    21:00 +7°C° 0 mm 2 mps 705 mmHg 50%
    22:00 +7°C° 0 mm 3 mps 705 mmHg 50%
    23:00 +7°C° 0 mm 3 mps 705 mmHg 50%

    Tomorrow, 25 July, Thursday

    Time Temperature Precipitation Wind Pressure Humidity
    00:00 +7°C° 0 mm 3 mps 704 mmHg 51%
    01:00 +5°C° 0 mm 3 mps 704 mmHg 51%
    02:00 +5°C° 0 mm 3 mps 704 mmHg 51%
    03:00 +5°C° 0 mm 3 mps 704 mmHg 53%
    04:00 +4°C° 0 mm 3 mps 703 mmHg 56%
    05:00 +4°C° 0 mm 3 mps 703 mmHg 58%
    06:00 +5°C° 0 mm 2 mps 703 mmHg 59%
    07:00 +5°C° 0 mm 2 mps 703 mmHg 60%
    08:00 +5°C° 0 mm 2 mps 703 mmHg 60%
    09:00 +7°C° 0 mm 2 mps 703 mmHg 53%
    10:00 +10°C° 0 mm 3 mps 703 mmHg 46%
    11:00 +12°C° 0 mm 3 mps 703 mmHg 38%
    12:00 +13°C° 0 mm 3 mps 703 mmHg 37%
    13:00 +13°C° 0 mm 3 mps 702 mmHg 35%
    14:00 +14°C° 0 mm 3 mps 701 mmHg 33%
    15:00 +14°C° 0 mm 3 mps 701 mmHg 34%
    16:00 +15°C° 0 mm 2 mps 701 mmHg 35%
    17:00 +14°C° 0 mm 2 mps 701 mmHg 37%
    18:00 +13°C° 0 mm 2 mps 701 mmHg 42%
    19:00 +10°C° 0 mm 2 mps 701 mmHg 47%
    20:00 +8°C° 0 mm 2 mps 701 mmHg 52%
    21:00 +8°C° 0 mm 2 mps 701 mmHg 53%
    22:00 +8°C° 0 mm 2 mps 701 mmHg 54%
    23:00 +7°C° 0 mm 2 mps 701 mmHg 55%

    Day after tomorrow, 26 July, Friday

    Time Temperature Precipitation Wind Pressure Humidity
    00:00 +7°C° 0 mm 2 mps 701 mmHg 55%
    01:00 +7°C° 0 mm 2 mps 701 mmHg 56%
    02:00 +7°C° 0 mm 3 mps 701 mmHg 56%
    03:00 +6°C° 0 mm 2 mps 701 mmHg 57%
    04:00 +6°C° 0 mm 2 mps 701 mmHg 59%
    05:00 +5°C° 0 mm 2 mps 701 mmHg 60%
    06:00 +5°C° 0 mm 2 mps 702 mmHg 59%
    07:00 +6°C° 0 mm 2 mps 702 mmHg 59%
    08:00 +7°C° 0 mm 1 mps 703 mmHg 58%
    09:00 +9°C° 0 mm 1 mps 703 mmHg 51%
    10:00 +11°C° 0 mm 1 mps 704 mmHg 43%
    11:00 +14°C° 0 mm 2 mps 705 mmHg 36%
    12:00 +14°C° 0 mm 1 mps 704 mmHg 34%
    13:00 +15°C° 0 mm 1 mps 704 mmHg 32%
    14:00 +16°C° 0 mm 1 mps 704 mmHg 30%
    15:00 +15°C° 0 mm 1 mps 703 mmHg 31%
    16:00 +15°C° 0 mm 1 mps 703 mmHg 33%
    17:00 +15°C° 0 mm 2 mps 703 mmHg 34%
    18:00 +14°C° 0 mm 2 mps 704 mmHg 36%
    19:00 +13°C° 0 mm 2 mps 704 mmHg 38%
    20:00 +12°C° 0 mm 2 mps 704 mmHg 40%
    21:00 +10°C° 0 mm 2 mps 704 mmHg 42%
    22:00 +9°C° 0 mm 2 mps 704 mmHg 43%
    23:00 +9°C° 0 mm 3 mps 704 mmHg 45%

    27 July, Saturday

    Time Temperature Precipitation Wind Pressure Humidity
    00:00 +8°C° 0 mm 3 mps 704 mmHg 45%
    01:00 +8°C° 0 mm 3 mps 704 mmHg 46%
    02:00 +8°C° 0 mm 3 mps 704 mmHg 47%
    03:00 +7°C° 0 mm 3 mps 703 mmHg 47%
    04:00 +7°C° 0 mm 3 mps 703 mmHg 47%
    05:00 +7°C° 0 mm 2 mps 703 mmHg 48%
    06:00 +7°C° 0 mm 2 mps 703 mmHg 49%
    07:00 +7°C° 0 mm 2 mps 703 mmHg 49%
    08:00 +7°C° 0 mm 2 mps 704 mmHg 50%
    09:00 +9°C° 0 mm 3 mps 704 mmHg 45%
    10:00 +12°C° 0 mm 4 mps 704 mmHg 40%
    11:00 +14°C° 0 mm 5 mps 704 mmHg 35%
    12:00 +15°C° 0 mm 5 mps 704 mmHg 35%
    13:00 +15°C° 0 mm 5 mps 703 mmHg 35%
    14:00 +16°C° 0 mm 6 mps 702 mmHg 34%
    15:00 +15°C° 0 mm 5 mps 702 mmHg 36%
    16:00 +15°C° 0 mm 5 mps 701 mmHg 38%
    17:00 +14°C° 0 mm 4 mps 701 mmHg 40%
    18:00 +13°C° 0 mm 4 mps 701 mmHg 44%
    19:00 +12°C° 0 mm 3 mps 701 mmHg 47%
    20:00 +11°C° 0 mm 3 mps 701 mmHg 51%
    21:00 +10°C° 0 mm 3 mps 700 mmHg 52%
    22:00 +10°C° 0 mm 3 mps 700 mmHg 53%
    23:00 +10°C° 0 mm 3 mps 700 mmHg 54%

    28 July, Sunday

    Time Temperature Precipitation Wind Pressure Humidity
    00:00 +8°C° 0 mm 4 mps 700 mmHg 55%
    01:00 +8°C° 0 mm 4 mps 700 mmHg 57%
    02:00 +8°C° 0 mm 4 mps 700 mmHg 59%
    03:00 +7°C° 0 mm 4 mps 699 mmHg 62%
    04:00 +7°C° 0 mm 5 mps 699 mmHg 65%
    05:00 +7°C° 0 mm 5 mps 698 mmHg 68%
    06:00 +7°C° 0 mm 5 mps 699 mmHg 70%
    07:00 +7°C° 0 mm 4 mps 699 mmHg 71%
    08:00 +7°C° 0 mm 4 mps 699 mmHg 72%
    09:00 +9°C° 0 mm 5 mps 700 mmHg 66%
    10:00 +12°C° 0 mm 5 mps 700 mmHg 59%
    11:00 +13°C° 0 mm 6 mps 700 mmHg 52%
    12:00 +14°C° 0 mm 6 mps 700 mmHg 50%
    13:00 +15°C° 0 mm 6 mps 699 mmHg 48%
    14:00 +16°C° 0 mm 5 mps 698 mmHg 46%
    15:00 +16°C° 0 mm 5 mps 698 mmHg 46%
    16:00 +15°C° 0 mm 4 mps 698 mmHg 47%
    17:00 +15°C° 0 mm 4 mps 698 mmHg 48%
    18:00 +14°C° 0 mm 3 mps 698 mmHg 55%
    19:00 +13°C° 0 mm 2 mps 698 mmHg 62%
    20:00 +10°C° 0 mm 2 mps 698 mmHg 69%
    21:00 +10°C° 0 mm 2 mps 698 mmHg 71%
    22:00 +10°C° 0 mm 1 mps 698 mmHg 73%
    23:00 +10°C° 0 mm 1 mps 698 mmHg 75%

    29 July, Monday

    Time Temperature Precipitation Wind Pressure Humidity
    00:00 +10°C° 0 mm 1 mps 698 mmHg 77%
    01:00 +8°C° 0 mm 2 mps 698 mmHg 78%
    02:00 +8°C° 0 mm 2 mps 699 mmHg 80%
    03:00 +8°C° 0 mm 2 mps 699 mmHg 81%
    04:00 +8°C° 0 mm 2 mps 699 mmHg 82%
    05:00 +8°C° 0 mm 2 mps 699 mmHg 83%
    06:00 +8°C° 0 mm 2 mps 699 mmHg 82%
    07:00 +8°C° 0 mm 2 mps 699 mmHg 81%
    08:00 +8°C° 0 mm 2 mps 700 mmHg 81%
    09:00 +12°C° 0 mm 2 mps 700 mmHg 71%
    10:00 +13°C° 0 mm 3 mps 701 mmHg 61%
    11:00 +16°C° 0 mm 3 mps 701 mmHg 51%
    12:00 +17°C° 0 mm 3 mps 701 mmHg 46%
    13:00 +18°C° 0 mm 3 mps 700 mmHg 42%
    14:00 +19°C° 0 mm 3 mps 700 mmHg 38%
    15:00 +19°C° 0 mm 3 mps 699 mmHg 39%
    16:00 +19°C° 0 mm 3 mps 699 mmHg 40%
    17:00 +19°C° 0 mm 2 mps 698 mmHg 40%
    18:00 +17°C° 0 mm 2 mps 698 mmHg 46%
    19:00 +15°C° 0 mm 2 mps 698 mmHg 52%
    20:00 +13°C° 0 mm 2 mps 698 mmHg 58%
    21:00 +13°C° 0 mm 2 mps 698 mmHg 59%
    22:00 +12°C° 0 mm 2 mps 698 mmHg 60%
    23:00 +11°C° 0 mm 3 mps 697 mmHg 60%
    Show more